Kuchera_Ratio
0.0 0.0 0.0 0.0 0.0 0.0 0.0 0.0 0.0 0.0 0.0 0.0 0.0 0.0 0.0 0.0 0.0 0.0 0.0 0.0 0.0 0.0 0.0 0.0 0.0 0.0 0.0 0.0 0.0 0.0 0.0 0.0 0.0 0.0 0.0 0.0 0.0 0.0 0.0 0.0 0.0 0.0 1.3 3.2 3.5 4.2 4.5 0.0 0.0 0.0 0.0 0.0 0.0 0.0
0.0 0.0 0.0 0.0 0.0 0.0 0.0 0.0 0.0 0.0 0.0 0.0 0.0 0.0 0.0 0.0 0.0 0.0 0.0 0.0 0.0 0.0 0.0 0.0 0.0 0.0 0.0 0.0 0.0 0.0 0.0 0.0 0.0 0.0 0.0 0.0 0.0 0.0 0.0 0.2 0.0 0.0 0.0 0.0 0.0 0.0 0.0 0.0 0.0 0.0 0.0 0.0 0.0 0.0
0.0 0.0 0.0 0.0 0.0 0.0 0.0 0.0 0.0 0.0 0.0 0.0 0.0 0.0 0.0 0.0 0.0 0.0 0.0 0.0 0.0 0.0 0.0 0.0 0.0 0.0 0.0 0.0 0.0 0.0 0.0 0.0 0.0 0.0 0.0 0.0 0.0 0.0 0.0 0.0 0.0 0.0 0.0 0.0 0.0 0.0 0.0 0.0 0.0 0.0 0.0 0.0 0.0 0.0
0.0 0.0 0.0 0.0 0.0 0.0 0.0 0.0 0.0 0.0 0.0 0.0 0.0 0.0 0.0 0.0 0.0 0.0 0.0 0.0 0.0 0.0 1.9 0.0 0.0 0.0 0.0 0.0 0.0 0.0 0.0 0.0 0.0 0.0 0.0 0.0 0.0 0.0 0.0 0.0 0.0 0.0 0.0 0.0 0.0 0.0 0.0 0.0 0.0 0.0 0.0 0.0 0.0 0.0
0.0 0.0 0.0 0.0 0.0 0.0 0.0 0.0 0.0 0.0 0.0 0.0 0.0 0.0 0.0 0.0 0.0 0.0 0.0 0.0 0.0 0.0 0.6 0.0 0.0 0.0 0.0 0.0 0.0 0.0 0.0 0.0 0.0 0.0 0.0 0.0 0.0 0.0 0.0 0.0 0.0 0.0 0.0 0.0 0.0 0.0 0.0 0.0 0.0 0.0 0.0 0.0 0.0 0.0
0.0 0.0 0.0 0.0 0.0 0.0 0.0 0.0 0.0 0.0 0.0 0.0 0.0 0.0 0.0 0.0 0.0 0.0 0.0 0.0 0.0 0.0 0.0 2.5 0.0 0.0 0.0 0.0 0.0 0.0 0.0 0.0 0.0 0.0 0.0 0.0 0.0 0.0 0.0 0.0 0.0 0.0 0.0 0.0 0.0 0.0 0.0 0.0 0.0 0.0 0.0 0.0 0.0 0.0
0.0 0.0 0.0 0.0 0.0 0.0 0.0 0.0 0.0 0.0 0.0 0.0 0.0 0.0 0.0 0.0 0.0 0.0 0.0 0.0 0.0 0.0 0.0 2.0 0.0 0.0 0.0 0.0 0.0 0.0 0.0 0.0 0.0 0.0 0.0 0.0 0.0 0.0 0.0 0.0 0.0 0.0 0.0 0.0 0.0 0.0 0.0 0.0 0.0 0.0 0.0 0.0 0.0 1.0
0.0 0.0 0.0 0.0 0.0 0.0 0.0 0.0 0.0 0.0 0.0 0.0 0.0 0.0 0.0 0.0 0.0 0.0 0.0 0.0 0.0 0.0 0.0 1.4 0.8 0.0 0.0 0.0 0.0 0.0 0.0 0.0 0.0 0.0 0.0 0.0 0.0 0.0 0.0 0.0 0.0 0.0 0.0 0.0 0.0 0.0 0.0 0.0 0.0 0.4 0.0 0.4 3.4 5.2
0.0 0.0 0.0 0.0 0.0 0.0 0.0 0.0 0.0 0.0 0.0 0.0 0.0 0.0 0.0 0.0 0.0 0.0 0.0 0.0 0.0 0.0 0.0 0.0 0.3 4.0 0.0 0.0 0.0 0.0 0.0 0.0 0.0 0.0 0.0 0.0 0.0 0.0 0.0 0.0 0.0 0.0 0.0 0.0 0.0 0.0 0.0 1.0 1.4 1.8 2.6 3.4 5.8 7.5
0.0 0.0 0.0 0.0 0.0 0.0 0.0 0.0 0.0 0.0 0.0 0.0 0.0 0.0 0.0 0.0 0.0 0.0 0.0 0.0 0.0 0.0 0.0 1.3 0.0 1.2 0.0 0.0 0.8 0.0 0.0 0.0 0.2 0.8 0.0 0.7 0.1 0.0 0.0 0.0 0.0 0.0 0.0 0.0 0.8 4.5 3.6 3.6 2.4 3.4 4.0 3.5 4.4 6.8
0.0 0.0 0.0 0.0 0.0 0.0 0.0 0.0 0.0 0.0 0.0 0.0 0.0 0.0 0.0 0.0 0.0 0.0 0.0 1.1 0.0 2.9 0.8 0.0 0.0 0.6 0.0 0.4 2.1 0.3 1.0 1.1 3.1 2.9 2.1 6.6 5.3 2.6 0.0 0.0 0.0 0.0 0.0 0.0 0.0 0.0 0.0 0.0 1.0 4.0 5.6 6.4 8.8 10.2
0.0 0.0 0.0 0.0 0.0 0.0 0.0 0.0 0.0 0.0 0.0 0.0 0.0 0.0 0.0 0.0 0.0 0.0 4.9 4.5 2.9 4.4 3.1 3.0 0.9 0.0 0.0 0.0 1.9 1.5 3.5 3.7 6.6 0.7 4.3 7.7 6.1 0.0 0.0 0.0 0.0 0.0 0.0 0.0 0.0 0.0 0.0 0.0 1.2 4.4 7.4 10.6 10.9 10.4
0.0 0.0 0.0 0.0 0.0 0.0 0.0 0.0 0.0 0.0 0.0 0.0 0.0 0.0 0.0 2.0 5.3 4.1 6.3 8.2 8.2 5.9 2.9 1.7 3.4 0.3 0.0 0.0 3.1 3.7 7.9 7.9 2.1 7.5 9.8 6.9 3.4 0.8 0.0 0.0 0.0 0.0 0.0 0.4 1.2 1.6 2.8 4.0 4.4 7.3 11.0 11.0 11.0 11.8
0.0 0.0 0.0 0.0 0.0 0.0 0.0 0.0 0.0 0.0 0.0 0.0 0.0 6.4 7.1 10.2 10.6 10.4 8.8 8.0 7.4 5.0 2.7 2.5 3.6 4.2 2.8 5.4 6.5 6.4 6.6 3.9 11.2 9.3 7.3 6.6 3.8 0.6 0.0 0.0 1.4 3.8 5.4 5.2 5.8 6.6 8.4 9.4 11.0 10.4 11.0 12.1 12.5 12.9
0.0 0.0 0.0 0.0 0.0 0.0 0.0 0.0 0.0 0.0 0.0 2.1 6.0 11.7 12.0 9.0 7.8 7.8 7.4 7.0 5.8 3.7 1.9 3.4 4.5 2.6 6.1 7.2 7.6 7.9 10.2 11.2 12.1 11.4 9.4 5.2 2.6 1.1 3.0 3.6 5.4 7.0 7.8 8.2 7.6 10.0 11.2 10.8 11.0 11.6 11.4 11.2 12.7 13.8
0.0 0.0 0.0 0.0 0.0 0.0 0.0 0.0 0.0 0.0 3.7 7.8 8.6 8.8 7.6 7.6 8.6 8.2 7.8 7.6 4.4 2.8 1.9 3.3 6.7 7.7 9.3 7.8 7.2 10.8 12.5 12.2 11.1 9.2 6.2 2.8 3.4 4.6 5.0 5.0 5.4 6.4 6.8 7.6 8.4 9.0 10.2 11.8 12.2 11.8 12.2 13.3 14.1 14.5
0.0 0.0 0.0 0.0 0.0 0.0 0.0 0.0 0.0 6.4 7.0 9.4 10.8 7.8 8.2 8.6 9.6 8.6 8.0 7.4 4.4 4.8 7.4 7.2 9.2 11.0 8.4 9.5 12.2 10.2 12.9 11.0 8.6 7.0 5.2 4.8 5.2 6.4 6.6 7.0 7.4 6.4 7.4 8.2 8.4 8.6 9.8 9.6 11.6 12.3 13.5 12.9 12.4 14.1
0.0 0.0 0.0 0.0 0.0 0.0 0.0 0.0 4.4 6.8 10.4 8.8 12.1 9.8 7.8 8.0 8.6 7.8 7.2 5.0 6.0 7.0 6.6 8.6 6.2 12.7 14.7 13.6 13.1 11.0 9.8 8.6 6.6 6.2 7.4 6.6 6.0 6.0 4.6 6.2 6.4 6.8 8.2 8.6 8.2 8.8 9.8 12.0 12.4 13.1 12.5 13.0 13.9 13.9
0.0 0.0 0.0 0.0 0.0 0.0 1.8 2.7 2.6 10.6 10.0 8.4 8.0 8.0 8.1 7.9 7.0 7.2 7.0 6.4 5.4 5.8 7.6 10.6 13.9 14.4 13.9 12.2 11.0 10.0 9.4 8.8 9.4 8.4 7.6 6.2 6.0 7.0 7.6 8.2 8.8 9.6 10.0 10.2 10.8 12.5 12.8 12.8 13.8 14.1 14.4 15.0 16.8 16.9
0.0 0.0 0.0 0.0 0.0 0.2 8.0 9.2 1.7 9.2 10.8 9.4 7.8 8.6 8.4 9.0 8.4 9.0 9.0 8.2 7.4 9.4 12.7 14.1 14.7 14.0 13.0 11.6 8.8 8.4 8.4 7.4 7.8 10.2 10.8 9.0 7.8 9.0 10.4 11.6 12.3 11.6 11.6 12.1 13.1 13.8 14.3 15.1 14.8 15.6 16.4 17.7 18.8 19.4
0.0 0.0 0.0 0.0 0.0 0.9 5.7 8.2 7.4 7.4 8.2 9.8 8.0 8.0 9.4 7.8 11.4 12.2 12.1 8.4 12.1 13.6 14.0 13.1 13.6 12.9 12.0 10.4 8.8 8.0 7.6 7.0 8.4 8.8 11.2 12.8 11.6 11.8 12.1 12.1 11.8 12.5 14.0 15.3 16.5 17.1 17.3 17.8 17.2 17.9 18.4 19.0 18.9 18.8
0.0 0.0 0.0 0.0 3.2 3.4 6.8 5.0 9.0 6.0 8.8 9.6 10.6 9.8 12.4 12.7 13.0 13.1 10.0 13.4 14.1 13.6 12.6 13.2 13.4 13.4 13.5 13.1 12.9 11.6 10.0 9.4 9.6 10.8 11.6 11.8 13.3 13.8 14.6 14.6 15.2 16.2 16.1 16.4 16.8 18.0 18.1 17.5 18.4 19.4 19.7 19.9 19.7 19.8
0.0 0.0 2.4 5.5 10.4 11.1 12.1 4.0 9.6 9.7 14.1 11.3 9.7 12.6 13.3 13.3 11.4 9.2 15.3 14.1 14.8 13.7 12.7 12.9 13.3 13.2 14.0 13.7 12.8 12.8 12.5 12.7 14.0 14.4 14.7 15.3 15.6 16.0 16.0 16.1 16.0 17.1 17.6 17.2 16.7 17.8 18.9 19.5 20.2 20.8 20.6 20.9 21.1 21.0
0.0 7.6 12.0 12.2 12.6 14.2 10.8 10.6 9.8 10.7 10.5 14.5 15.7 16.4 15.0 13.5 12.7 15.3 17.8 17.5 16.1 14.7 14.4 14.3 13.8 14.7 14.5 14.8 16.2 15.9 14.3 14.2 15.0 15.0 14.8 15.9 17.3 17.7 17.3 17.9 18.1 18.0 17.9 18.2 19.1 20.4 21.2 21.6 21.6 22.0 22.1 22.3 22.8 23.3
10.9 15.1 13.5 17.1 13.0 12.9 16.0 15.5 15.9 15.5 16.3 16.3 16.9 16.8 15.9 12.7 18.2 19.0 19.7 18.5 18.0 18.4 17.4 15.3 15.9 15.9 17.4 17.8 17.6 17.2 15.5 15.4 17.2 18.5 17.8 16.3 17.5 18.0 18.7 19.1 19.8 19.6 19.3 21.8 22.6 22.6 22.8 23.0 23.4 23.5 24.2 24.6 24.6 24.4
16.1 14.6 15.2 14.6 14.5 16.7 16.7 16.6 16.2 16.3 16.4 17.0 16.2 13.2 13.7 18.0 20.9 22.5 19.1 19.2 19.7 18.7 18.9 18.2 17.9 18.4 18.7 18.0 18.8 18.9 18.2 16.1 16.8 19.6 19.5 18.5 18.7 18.9 19.9 20.9 22.0 22.6 21.8 22.7 23.1 23.7 24.2 24.5 24.8 24.9 25.2 25.0 24.8 24.8
17.8 17.7 13.8 9.6 13.2 13.6 14.9 13.2 14.1 17.5 18.1 18.3 18.1 17.7 18.0 22.5 22.8 19.8 17.2 17.2 18.0 17.9 17.1 17.4 17.0 17.9 18.8 18.8 18.2 18.6 18.7 18.2 18.9 19.3 18.6 18.9 19.4 19.9 21.9 23.4 24.1 23.4 23.2 23.2 23.5 23.9 24.3 24.7 25.1 25.1 25.6 25.2 25.0 25.3
15.1 14.6 17.2 14.3 14.5 15.0 17.7 18.2 19.3 20.3 19.7 16.5 17.9 20.5 22.2 23.7 23.5 18.6 18.0 16.2 16.8 16.4 17.1 17.4 17.8 18.8 20.3 21.1 21.3 21.0 20.5 20.4 19.8 20.1 20.6 21.1 21.8 22.8 23.1 22.8 22.9 21.3 23.3 23.6 23.9 24.0 24.3 24.2 24.5 25.1 25.4 25.5 25.3 24.9
14.9 13.4 14.2 15.7 14.8 16.2 17.3 18.4 18.2 17.4 15.2 16.1 21.2 21.6 22.7 20.6 20.4 19.4 18.1 17.7 17.4 18.2 20.1 20.7 20.4 21.1 22.3 22.8 22.8 22.8 22.2 21.7 21.5 23.5 24.7 24.8 25.0 25.4 24.6 24.2 24.1 24.1 24.3 24.4 24.4 24.4 24.4 24.5 24.9 25.0 25.3 25.4 25.4 25.4
15.2 13.7 14.4 15.9 19.9 20.6 17.7 18.3 20.0 18.3 17.4 19.2 19.4 20.1 21.0 21.7 20.5 19.4 19.3 20.1 21.3 22.6 22.8 22.9 22.6 23.3 24.0 24.0 24.6 24.6 24.1 23.8 24.4 25.3 26.0 26.5 26.8 26.1 26.1 26.3 26.5 26.5 26.2 25.8 25.7 25.3 25.2 25.4 25.5 25.6 25.6 25.7 26.3 26.7
13.8 14.9 15.3 17.3 18.6 17.1 15.8 16.5 16.0 17.3 18.5 20.8 20.9 23.3 24.6 23.4 22.6 21.2 21.0 22.0 21.4 22.3 23.2 23.8 24.2 23.7 24.5 24.9 25.1 25.3 25.7 25.3 25.3 25.2 25.4 25.4 25.6 26.1 26.8 27.3 27.4 27.2 27.5 27.6 27.7 27.7 27.8 27.7 27.5 27.3 27.5 27.8 27.7 27.8
16.4 16.5 16.4 20.3 18.2 16.4 15.0 16.0 16.5 20.1 20.9 21.9 23.2 21.5 22.3 25.4 26.8 24.1 22.3 22.0 23.5 24.4 24.9 24.8 24.8 24.4 23.3 23.5 24.3 25.4 26.0 25.9 25.9 26.4 26.7 26.5 26.5 27.0 27.3 27.5 27.8 28.1 28.1 28.4 28.7 28.7 28.8 29.0 29.1 29.1 28.9 28.2 28.4 28.9
16.5 16.8 17.2 17.7 18.3 17.9 17.9 17.8 18.8 20.7 21.1 22.0 22.7 23.8 24.7 25.8 27.0 23.9 23.1 23.2 23.7 24.3 24.7 24.5 24.0 23.7 24.3 24.7 25.7 26.1 26.1 26.6 26.0 25.7 25.4 24.9 25.4 25.5 26.4 27.4 28.0 28.0 28.1 28.2 28.5 29.2 29.7 30.1 30.4 30.5 30.5 30.2 29.9 30.2